Time,TemperatureF,DewpointF,PressureIn,WindDirection,WindDirectionDegrees,WindSpeedMPH,WindSpeedGustMPH,Humidity,HourlyPrecipIn,Conditions,Clouds,dailyrainin,SoftwareType,DateUTC
2013-06-04 00:01:00,60.6,54.7,29.88,WNW,296,0.0,0.0,81,0.00,,,0.00,meteohub,2013-06-04 04:01:00,
2013-06-04 00:02:00,60.6,54.7,29.87,WNW,296,0.0,0.0,81,0.00,,,0.00,meteohub,2013-06-04 04:02:00,
2013-06-04 00:07:00,60.8,54.9,29.88,WNW,296,0.0,0.0,81,0.00,,,0.00,meteohub,2013-06-04 04:07:00,
2013-06-04 00:12:00,60.8,54.9,29.87,WNW,296,0.0,0.0,81,0.00,,,0.00,meteohub,2013-06-04 04:12:00,
2013-06-04 00:17:00,60.6,54.7,29.88,WNW,296,0.0,0.0,81,0.00,,,0.00,meteohub,2013-06-04 04:17:00,
2013-06-04 00:22:00,60.4,54.9,29.87,WNW,296,0.0,0.0,82,0.00,,,0.00,meteohub,2013-06-04 04:22:00,
2013-06-04 00:27:00,60.3,54.7,29.87,WNW,296,0.0,0.0,82,0.00,,,0.00,meteohub,2013-06-04 04:27:00,
2013-06-04 00:32:00,60.1,54.9,29.88,WNW,296,0.0,0.0,83,0.00,,,0.00,meteohub,2013-06-04 04:32:00,
2013-06-04 00:37:00,60.1,55.2,29.87,WNW,296,0.0,0.0,84,0.00,,,0.00,meteohub,2013-06-04 04:37:00,
2013-06-04 00:42:00,59.9,55.4,29.87,WNW,296,0.0,0.0,85,0.00,,,0.00,meteohub,2013-06-04 04:42:00,
2013-06-04 00:47:00,59.7,55.2,29.88,WNW,296,0.0,0.0,85,0.00,,,0.00,meteohub,2013-06-04 04:47:00,
2013-06-04 00:52:00,59.7,55.6,29.88,WNW,296,0.0,0.0,86,0.00,,,0.00,meteohub,2013-06-04 04:52:00,
2013-06-04 00:57:00,59.5,55.4,29.88,WNW,296,0.0,0.0,86,0.00,,,0.00,meteohub,2013-06-04 04:57:00,
2013-06-04 01:02:00,59.4,55.4,29.88,WNW,296,0.0,0.0,87,0.00,,,0.00,meteohub,2013-06-04 05:02:00,
2013-06-04 01:07:00,59.2,55.6,29.88,WNW,296,0.0,0.0,88,0.00,,,0.00,meteohub,2013-06-04 05:07:00,
2013-06-04 01:12:00,59.0,55.4,29.88,WNW,296,0.0,0.0,88,0.00,,,0.00,meteohub,2013-06-04 05:12:00,
2013-06-04 01:17:00,58.8,55.6,29.88,WNW,296,0.0,0.0,89,0.00,,,0.00,meteohub,2013-06-04 05:17:00,
2013-06-04 01:22:00,58.8,55.6,29.88,WNW,296,0.0,0.0,89,0.00,,,0.00,meteohub,2013-06-04 05:22:00,
2013-06-04 01:27:00,58.6,55.4,29.88,WNW,297,0.0,0.0,89,0.00,,,0.00,meteohub,2013-06-04 05:27:00,
2013-06-04 01:32:00,58.6,55.4,29.88,WNW,297,0.0,0.0,89,0.00,,,0.00,meteohub,2013-06-04 05:32:00,
2013-06-04 01:37:00,58.6,55.4,29.88,WNW,297,0.0,0.0,89,0.00,,,0.00,meteohub,2013-06-04 05:37:00,
2013-06-04 01:42:00,58.6,55.8,29.88,WNW,297,0.0,0.0,90,0.00,,,0.00,meteohub,2013-06-04 05:42:00,
2013-06-04 01:47:00,58.6,55.8,29.88,WNW,297,0.0,0.0,90,0.00,,,0.00,meteohub,2013-06-04 05:47:00,
2013-06-04 01:52:00,58.6,55.8,29.88,WNW,297,0.0,0.0,90,0.00,,,0.00,meteohub,2013-06-04 05:52:00,
2013-06-04 01:57:00,58.6,55.8,29.88,WNW,297,0.0,0.0,90,0.00,,,0.00,meteohub,2013-06-04 05:57:00,
2013-06-04 02:02:00,58.6,55.8,29.88,WNW,297,0.0,0.0,90,0.00,,,0.00,meteohub,2013-06-04 06:02:00,
2013-06-04 02:07:00,58.6,55.4,29.87,WNW,297,0.0,0.0,89,0.00,,,0.00,meteohub,2013-06-04 06:07:00,
2013-06-04 02:12:00,58.6,55.4,29.87,WNW,297,0.0,0.0,89,0.00,,,0.00,meteohub,2013-06-04 06:12:00,
2013-06-04 02:17:00,58.6,55.4,29.87,WNW,297,0.0,0.0,89,0.00,,,0.00,meteohub,2013-06-04 06:17:00,
2013-06-04 02:22:00,58.6,55.0,29.87,WNW,297,0.0,0.0,88,0.00,,,0.00,meteohub,2013-06-04 06:22:00,
2013-06-04 02:27:00,58.5,54.9,29.87,WNW,297,0.0,0.0,88,0.00,,,0.00,meteohub,2013-06-04 06:27:00,
2013-06-04 02:32:00,58.3,55.0,29.87,WNW,297,0.0,0.0,89,0.00,,,0.00,meteohub,2013-06-04 06:32:00,
2013-06-04 02:37:00,57.9,54.7,29.87,WNW,297,0.0,0.0,89,0.00,,,0.00,meteohub,2013-06-04 06:37:00,
2013-06-04 02:42:00,57.7,54.9,29.86,WNW,297,0.0,0.0,90,0.00,,,0.00,meteohub,2013-06-04 06:42:00,
2013-06-04 02:48:00,57.7,55.2,29.86,WNW,297,0.0,0.0,91,0.00,,,0.00,meteohub,2013-06-04 06:48:00,
2013-06-04 02:53:00,57.6,55.0,29.86,WNW,297,0.0,0.0,91,0.00,,,0.00,meteohub,2013-06-04 06:53:00,
2013-06-04 02:58:00,57.7,55.2,29.86,WNW,297,0.0,0.0,91,0.00,,,0.00,meteohub,2013-06-04 06:58:00,
2013-06-04 03:03:00,57.7,55.2,29.86,WNW,297,0.0,0.0,91,0.00,,,0.00,meteohub,2013-06-04 07:03:00,
2013-06-04 03:08:00,57.7,54.9,29.86,WNW,297,0.0,0.0,90,0.00,,,0.00,meteohub,2013-06-04 07:08:00,
2013-06-04 03:13:00,57.7,54.9,29.86,WNW,297,0.0,0.0,90,0.00,,,0.00,meteohub,2013-06-04 07:13:00,
2013-06-04 03:18:00,57.6,55.0,29.86,WNW,297,0.0,0.0,91,0.00,,,0.00,meteohub,2013-06-04 07:18:00,
2013-06-04 03:23:00,57.4,54.9,29.86,WNW,297,0.0,0.0,91,0.00,,,0.00,meteohub,2013-06-04 07:23:00,
2013-06-04 03:28:00,57.4,54.9,29.86,WNW,297,0.0,0.0,91,0.00,,,0.00,meteohub,2013-06-04 07:28:00,
2013-06-04 03:33:00,57.0,54.5,29.86,WNW,297,0.0,0.0,91,0.00,,,0.00,meteohub,2013-06-04 07:33:00,
2013-06-04 03:38:00,57.0,54.7,29.85,WNW,297,0.0,0.0,92,0.00,,,0.00,meteohub,2013-06-04 07:38:00,
2013-06-04 03:43:00,56.8,54.5,29.85,WNW,298,0.0,0.0,92,0.00,,,0.00,meteohub,2013-06-04 07:43:00,
2013-06-04 03:48:00,56.8,54.5,29.86,WNW,298,0.0,0.0,92,0.00,,,0.00,meteohub,2013-06-04 07:48:00,
2013-06-04 03:53:00,56.7,54.7,29.86,WNW,298,0.0,0.0,93,0.00,,,0.00,meteohub,2013-06-04 07:53:00,
2013-06-04 03:58:00,56.7,54.7,29.85,WNW,298,0.0,0.0,93,0.00,,,0.00,meteohub,2013-06-04 07:58:00,
2013-06-04 04:03:00,56.7,54.7,29.86,WNW,298,0.0,0.0,93,0.00,,,0.00,meteohub,2013-06-04 08:03:00,
2013-06-04 04:08:00,56.5,54.5,29.86,WNW,298,0.0,0.0,93,0.00,,,0.00,meteohub,2013-06-04 08:08:00,
2013-06-04 04:13:00,56.5,54.5,29.86,WNW,298,0.0,0.0,93,0.00,,,0.00,meteohub,2013-06-04 08:13:00,
2013-06-04 04:18:00,56.5,54.5,29.86,WNW,298,0.0,0.0,93,0.00,,,0.00,meteohub,2013-06-04 08:18:00,
2013-06-04 04:23:00,56.5,54.5,29.86,WNW,298,0.0,0.0,93,0.00,,,0.00,meteohub,2013-06-04 08:23:00,
2013-06-04 04:28:00,56.5,54.5,29.86,WNW,298,0.0,0.0,93,0.00,,,0.00,meteohub,2013-06-04 08:28:00,
2013-06-04 04:33:00,56.7,54.3,29.86,WNW,298,0.0,0.0,92,0.00,,,0.00,meteohub,2013-06-04 08:33:00,
2013-06-04 04:38:00,56.8,54.3,29.86,WNW,297,0.0,0.0,91,0.00,,,0.00,meteohub,2013-06-04 08:38:00,
2013-06-04 04:43:00,57.2,54.0,29.86,WNW,298,0.0,0.0,89,0.00,,,0.00,meteohub,2013-06-04 08:43:00,
2013-06-04 04:48:00,57.4,53.6,29.86,WNW,298,0.0,0.0,87,0.00,,,0.00,meteohub,2013-06-04 08:48:00,
2013-06-04 04:53:00,57.4,53.2,29.86,WNW,298,0.0,0.0,86,0.00,,,0.00,meteohub,2013-06-04 08:53:00,
2013-06-04 04:58:00,57.4,53.2,29.86,WNW,298,0.0,0.0,86,0.00,,,0.00,meteohub,2013-06-04 08:58:00,
2013-06-04 05:03:00,57.2,53.4,29.86,WNW,298,0.0,0.0,87,0.00,,,0.00,meteohub,2013-06-04 09:03:00,
2013-06-04 05:08:00,57.0,53.2,29.86,WNW,298,0.0,0.0,87,0.00,,,0.00,meteohub,2013-06-04 09:08:00,
2013-06-04 05:13:00,56.8,53.1,29.86,WNW,298,0.0,0.0,87,0.00,,,0.00,meteohub,2013-06-04 09:13:00,
2013-06-04 05:18:00,56.8,53.1,29.87,WNW,298,0.0,0.0,87,0.00,,,0.00,meteohub,2013-06-04 09:18:00,
2013-06-04 05:23:00,56.8,53.1,29.87,WNW,298,0.0,0.0,87,0.00,,,0.00,meteohub,2013-06-04 09:23:00,
2013-06-04 05:28:00,57.4,53.2,29.87,WNW,298,0.0,0.0,86,0.00,,,0.00,meteohub,2013-06-04 09:28:00,
2013-06-04 05:34:00,57.7,54.0,29.87,WNW,297,0.0,0.0,87,0.00,,,0.00,meteohub,2013-06-04 09:34:00,
2013-06-04 05:39:00,57.9,53.8,29.88,WNW,297,0.0,0.0,86,0.00,,,0.00,meteohub,2013-06-04 09:39:00,
2013-06-04 05:44:00,58.3,54.1,29.88,WNW,297,0.0,0.0,86,0.00,,,0.00,meteohub,2013-06-04 09:44:00,
2013-06-04 05:49:00,58.5,54.0,29.87,WNW,297,0.0,0.0,85,0.00,,,0.00,meteohub,2013-06-04 09:49:00,
2013-06-04 05:54:00,58.5,53.6,29.88,WNW,297,0.0,0.0,84,0.00,,,0.00,meteohub,2013-06-04 09:54:00,
2013-06-04 05:59:00,58.6,53.2,29.88,WNW,300,0.0,0.0,82,0.00,,,0.00,meteohub,2013-06-04 09:59:00,
2013-06-04 06:04:00,58.6,52.9,29.88,WNW,300,0.0,0.0,81,0.00,,,0.00,meteohub,2013-06-04 10:04:00,
2013-06-04 06:09:00,58.6,52.5,29.88,WNW,300,0.0,0.0,80,0.00,,,0.00,meteohub,2013-06-04 10:09:00,
2013-06-04 06:14:00,58.8,52.0,29.88,WNW,300,0.0,1.0,78,0.00,,,0.00,meteohub,2013-06-04 10:14:00,
2013-06-04 06:19:00,58.8,52.0,29.88,WNW,300,0.0,1.0,78,0.00,,,0.00,meteohub,2013-06-04 10:19:00,
2013-06-04 06:24:00,58.8,52.0,29.88,WNW,300,0.0,1.0,78,0.00,,,0.00,meteohub,2013-06-04 10:24:00,
2013-06-04 06:29:00,58.8,52.0,29.88,WNW,300,0.0,1.0,78,0.00,,,0.00,meteohub,2013-06-04 10:29:00,
2013-06-04 06:34:00,58.6,51.8,29.88,WNW,300,0.0,1.0,78,0.00,,,0.00,meteohub,2013-06-04 10:34:00,
2013-06-04 06:39:00,58.5,51.3,29.89,WNW,300,0.0,1.0,77,0.00,,,0.00,meteohub,2013-06-04 10:39:00,
2013-06-04 06:44:00,58.5,51.6,29.88,WNW,300,0.0,1.0,78,0.00,,,0.00,meteohub,2013-06-04 10:44:00,
2013-06-04 06:49:00,58.3,51.4,29.89,WNW,300,0.0,1.0,78,0.00,,,0.00,meteohub,2013-06-04 10:49:00,
2013-06-04 06:54:00,58.1,51.6,29.89,WNW,300,0.0,1.0,79,0.00,,,0.00,meteohub,2013-06-04 10:54:00,
2013-06-04 06:59:00,57.9,51.4,29.89,WNW,301,0.0,0.0,79,0.00,,,0.00,meteohub,2013-06-04 10:59:00,
2013-06-04 07:04:00,57.9,51.8,29.89,WNW,301,0.0,1.0,80,0.00,,,0.00,meteohub,2013-06-04 11:04:00,
2013-06-04 07:09:00,57.9,51.8,29.90,WNW,301,0.0,1.0,80,0.00,,,0.00,meteohub,2013-06-04 11:09:00,
2013-06-04 07:14:00,58.1,52.0,29.90,WNW,299,0.0,1.0,80,0.00,,,0.00,meteohub,2013-06-04 11:14:00,
2013-06-04 07:19:00,58.5,52.0,29.90,WNW,294,0.0,1.0,79,0.00,,,0.00,meteohub,2013-06-04 11:19:00,
2013-06-04 07:24:00,58.6,52.2,29.90,WNW,299,0.0,1.0,79,0.00,,,0.00,meteohub,2013-06-04 11:24:00,
2013-06-04 07:29:00,58.8,52.3,29.90,WNW,299,0.0,1.0,79,0.00,,,0.00,meteohub,2013-06-04 11:29:00,
2013-06-04 07:34:00,59.0,52.2,29.90,WNW,299,0.0,1.0,78,0.00,,,0.00,meteohub,2013-06-04 11:34:00,
2013-06-04 07:39:00,59.2,52.3,29.90,WNW,299,0.0,1.0,78,0.00,,,0.00,meteohub,2013-06-04 11:39:00,
2013-06-04 07:44:00,59.2,52.7,29.90,WNW,299,0.0,0.0,79,0.00,,,0.00,meteohub,2013-06-04 11:44:00,
2013-06-04 07:49:00,59.2,52.7,29.90,WNW,299,0.0,0.0,79,0.00,,,0.00,meteohub,2013-06-04 11:49:00,
2013-06-04 07:54:00,59.4,52.9,29.90,NW,317,0.0,0.0,79,0.00,,,0.00,meteohub,2013-06-04 11:54:00,
2013-06-04 07:59:00,59.5,53.1,29.90,NW,314,0.0,1.0,79,0.00,,,0.00,meteohub,2013-06-04 11:59:00,
2013-06-04 08:04:00,59.5,53.1,29.90,NW,314,0.0,1.0,79,0.00,,,0.00,meteohub,2013-06-04 12:04:00,
2013-06-04 08:09:00,59.7,53.2,29.90,NW,314,0.0,1.0,79,0.00,,,0.00,meteohub,2013-06-04 12:09:00,
2013-06-04 08:14:00,59.7,52.9,29.90,NW,314,0.0,1.0,78,0.00,,,0.00,meteohub,2013-06-04 12:14:00,
2013-06-04 08:19:00,60.1,53.6,29.90,NW,314,1.0,1.0,79,0.00,,,0.00,meteohub,2013-06-04 12:19:00,
2013-06-04 08:24:00,60.3,53.4,29.91,WNW,299,0.0,2.0,78,0.00,,,0.00,meteohub,2013-06-04 12:24:00,
2013-06-04 08:29:00,60.3,53.4,29.91,WNW,299,0.0,2.0,78,0.00,,,0.00,meteohub,2013-06-04 12:29:00,
2013-06-04 08:34:00,60.4,52.9,29.91,WNW,300,0.0,1.0,76,0.00,,,0.00,meteohub,2013-06-04 12:34:00,
2013-06-04 08:39:00,60.6,53.4,29.91,NW,325,0.0,1.0,77,0.00,,,0.00,meteohub,2013-06-04 12:39:00,
2013-06-04 08:44:00,60.8,53.6,29.91,NW,325,0.0,1.0,77,0.00,,,0.00,meteohub,2013-06-04 12:44:00,
2013-06-04 08:49:00,61.0,53.4,29.91,NW,325,0.0,1.0,76,0.00,,,0.00,meteohub,2013-06-04 12:49:00,
2013-06-04 08:54:00,61.0,53.8,29.91,NW,325,0.0,1.0,77,0.00,,,0.00,meteohub,2013-06-04 12:54:00,
2013-06-04 08:59:00,61.2,53.6,29.91,NW,325,0.0,0.0,76,0.00,,,0.00,meteohub,2013-06-04 12:59:00,
2013-06-04 09:04:00,61.3,53.4,29.91,NW,325,0.0,0.0,75,0.00,,,0.00,meteohub,2013-06-04 13:04:00,
2013-06-04 09:09:00,61.5,53.6,29.91,NW,323,0.0,0.0,75,0.00,,,0.00,meteohub,2013-06-04 13:09:00,
2013-06-04 09:14:00,61.7,53.2,29.91,WNW,301,0.0,1.0,74,0.00,,,0.00,meteohub,2013-06-04 13:14:00,
2013-06-04 09:19:00,62.1,53.2,29.92,WNW,287,0.0,1.0,73,0.00,,,0.00,meteohub,2013-06-04 13:19:00,
2013-06-04 09:24:00,62.1,53.2,29.92,WNW,297,0.0,1.0,73,0.00,,,0.00,meteohub,2013-06-04 13:24:00,
2013-06-04 09:29:00,62.1,53.6,29.92,NW,312,0.0,1.0,74,0.00,,,0.00,meteohub,2013-06-04 13:29:00,
2013-06-04 09:35:00,62.1,54.0,29.92,NW,312,0.0,1.0,75,0.00,,,0.00,meteohub,2013-06-04 13:35:00,
2013-06-04 09:36:00,62.1,53.6,29.92,WNW,301,0.0,1.0,74,0.00,,,0.00,meteohub,2013-06-04 13:36:00,
2013-06-04 09:42:00,62.2,53.8,29.93,WNW,301,0.0,1.0,74,0.00,,,0.00,meteohub,2013-06-04 13:42:00,
2013-06-04 09:47:00,62.2,54.1,29.93,SE,139,0.0,1.0,75,0.00,,,0.00,meteohub,2013-06-04 13:47:00,
2013-06-04 09:52:00,62.2,54.1,29.93,NW,308,0.0,1.0,75,0.00,,,0.00,meteohub,2013-06-04 13:52:00,
2013-06-04 09:57:00,62.2,53.4,29.93,NW,309,0.0,1.0,73,0.00,,,0.00,meteohub,2013-06-04 13:57:00,
2013-06-04 10:02:00,62.4,55.4,29.93,WNW,300,0.0,1.0,78,0.00,,,0.00,meteohub,2013-06-04 14:02:00,
2013-06-04 10:07:00,62.8,54.0,29.93,ESE,120,0.0,1.0,73,0.00,,,0.00,meteohub,2013-06-04 14:07:00,
2013-06-04 10:12:00,63.1,54.3,29.93,ESE,120,0.0,1.0,73,0.00,,,0.00,meteohub,2013-06-04 14:12:00,
2013-06-04 10:17:00,63.1,54.0,29.93,NW,319,0.0,1.0,72,0.00,,,0.00,meteohub,2013-06-04 14:17:00,
2013-06-04 10:22:00,63.3,53.4,29.93,NW,325,0.0,1.0,70,0.00,,,0.00,meteohub,2013-06-04 14:22:00,
2013-06-04 10:27:00,63.5,54.0,29.93,NNE,22,0.0,1.0,71,0.00,,,0.00,meteohub,2013-06-04 14:27:00,
2013-06-04 10:32:00,63.9,53.1,29.93,NW,310,1.0,1.0,68,0.00,,,0.00,meteohub,2013-06-04 14:32:00,
2013-06-04 10:37:00,63.9,53.4,29.93,NW,325,0.0,1.0,69,0.00,,,0.00,meteohub,2013-06-04 14:37:00,
2013-06-04 10:42:00,63.9,53.4,29.93,NW,308,0.0,1.0,69,0.00,,,0.00,meteohub,2013-06-04 14:42:00,
2013-06-04 10:47:00,63.9,53.4,29.93,NW,308,0.0,1.0,69,0.00,,,0.00,meteohub,2013-06-04 14:47:00,
2013-06-04 10:52:00,64.0,52.9,29.93,East,95,0.0,1.0,67,0.00,,,0.00,meteohub,2013-06-04 14:52:00,
2013-06-04 10:57:00,64.2,53.4,29.93,WNW,300,0.0,1.0,68,0.00,,,0.00,meteohub,2013-06-04 14:57:00,
2013-06-04 11:02:00,64.4,54.0,29.93,NW,305,0.0,1.0,69,0.00,,,0.00,meteohub,2013-06-04 15:02:00,
2013-06-04 11:07:00,64.8,53.6,29.93,SSE,148,0.0,1.0,67,0.00,,,0.00,meteohub,2013-06-04 15:07:00,
2013-06-04 11:12:00,65.1,53.1,29.93,NW,306,0.0,1.0,65,0.00,,,0.00,meteohub,2013-06-04 15:12:00,
2013-06-04 11:17:00,65.1,53.4,29.93,NW,313,0.0,1.0,66,0.00,,,0.00,meteohub,2013-06-04 15:17:00,
2013-06-04 11:22:00,65.1,54.0,29.92,WNW,293,0.0,1.0,67,0.00,,,0.00,meteohub,2013-06-04 15:22:00,
2013-06-04 11:27:00,65.3,52.9,29.93,NW,304,0.0,1.0,64,0.00,,,0.00,meteohub,2013-06-04 15:27:00,
2013-06-04 11:32:00,65.5,52.5,29.93,ENE,69,0.0,1.0,63,0.00,,,0.00,meteohub,2013-06-04 15:32:00,
2013-06-04 11:37:00,66.0,53.1,29.93,SSE,158,0.0,1.0,63,0.00,,,0.00,meteohub,2013-06-04 15:37:00,
2013-06-04 11:42:00,66.6,53.6,29.93,WNW,293,0.0,1.0,63,0.00,,,0.00,meteohub,2013-06-04 15:42:00,
2013-06-04 11:47:00,66.6,54.5,29.93,NW,323,0.0,1.0,65,0.00,,,0.00,meteohub,2013-06-04 15:47:00,
2013-06-04 11:52:00,66.9,55.6,29.93,NW,323,0.0,1.0,67,0.00,,,0.00,meteohub,2013-06-04 15:52:00,
2013-06-04 11:57:00,67.5,54.5,29.93,South,170,0.0,1.0,63,0.00,,,0.00,meteohub,2013-06-04 15:57:00,
2013-06-04 12:02:00,67.8,54.7,29.93,NNW,329,0.0,1.0,63,0.00,,,0.00,meteohub,2013-06-04 16:02:00,
2013-06-04 12:07:00,68.2,53.8,29.93,NNW,327,0.0,1.0,60,0.00,,,0.00,meteohub,2013-06-04 16:07:00,
2013-06-04 12:12:00,68.0,54.0,29.93,WNW,297,0.0,1.0,61,0.00,,,0.00,meteohub,2013-06-04 16:12:00,
2013-06-04 12:17:00,68.2,56.8,29.93,WNW,298,0.0,1.0,67,0.00,,,0.00,meteohub,2013-06-04 16:17:00,
2013-06-04 12:22:00,68.2,55.0,29.93,WNW,291,0.0,1.0,63,0.00,,,0.00,meteohub,2013-06-04 16:22:00,
2013-06-04 12:27:00,68.4,55.2,29.93,WNW,298,0.0,1.0,63,0.00,,,0.00,meteohub,2013-06-04 16:27:00,
2013-06-04 12:32:00,68.4,54.3,29.93,NW,311,0.0,1.0,61,0.00,,,0.00,meteohub,2013-06-04 16:32:00,
2013-06-04 12:37:00,68.5,55.4,29.93,NW,311,0.0,1.0,63,0.00,,,0.00,meteohub,2013-06-04 16:37:00,
2013-06-04 12:42:00,68.7,55.2,29.92,NW,311,0.0,1.0,62,0.00,,,0.00,meteohub,2013-06-04 16:42:00,
2013-06-04 12:47:00,69.6,56.5,29.92,ESE,109,0.0,1.0,63,0.00,,,0.00,meteohub,2013-06-04 16:47:00,
2013-06-04 12:52:00,70.2,58.3,29.92,ESE,109,0.0,1.0,66,0.00,,,0.00,meteohub,2013-06-04 16:52:00,
2013-06-04 12:57:00,71.2,57.0,29.92,ESE,110,0.0,1.0,61,0.00,,,0.00,meteohub,2013-06-04 16:57:00,
2013-06-04 13:02:00,71.2,56.1,29.92,ESE,110,0.0,1.0,59,0.00,,,0.00,meteohub,2013-06-04 17:02:00,
2013-06-04 13:07:00,70.5,55.0,29.92,ESE,110,0.0,0.0,58,0.00,,,0.00,meteohub,2013-06-04 17:07:00,
2013-06-04 13:12:00,70.2,56.5,29.92,NE,55,0.0,0.0,62,0.00,,,0.00,meteohub,2013-06-04 17:12:00,
2013-06-04 13:17:00,70.3,58.8,29.92,NE,54,0.0,1.0,67,0.00,,,0.00,meteohub,2013-06-04 17:17:00,
2013-06-04 13:22:00,71.4,58.1,29.92,ENE,77,0.0,1.0,63,0.00,,,0.00,meteohub,2013-06-04 17:22:00,
2013-06-04 13:27:00,71.6,57.4,29.92,ENE,77,0.0,1.0,61,0.00,,,0.00,meteohub,2013-06-04 17:27:00,
2013-06-04 13:32:00,71.4,57.7,29.92,ENE,78,0.0,1.0,62,0.00,,,0.00,meteohub,2013-06-04 17:32:00,
2013-06-04 13:37:00,71.2,57.9,29.92,East,79,0.0,1.0,63,0.00,,,0.00,meteohub,2013-06-04 17:37:00,
2013-06-04 13:42:00,70.7,56.7,29.92,North,349,0.0,0.0,61,0.00,,,0.00,meteohub,2013-06-04 17:42:00,
2013-06-04 13:47:00,70.2,56.1,29.92,NNE,29,0.0,1.0,61,0.00,,,0.00,meteohub,2013-06-04 17:47:00,
2013-06-04 13:52:00,70.5,58.1,29.92,SSE,150,0.0,1.0,65,0.00,,,0.00,meteohub,2013-06-04 17:52:00,
2013-06-04 13:57:00,71.2,58.5,29.92,SSE,150,0.0,1.0,64,0.00,,,0.00,meteohub,2013-06-04 17:57:00,
2013-06-04 14:03:00,71.8,55.8,29.92,SE,133,0.0,0.0,57,0.00,,,0.00,meteohub,2013-06-04 18:03:00,
2013-06-04 14:08:00,71.8,57.6,29.92,SE,129,0.0,0.0,61,0.00,,,0.00,meteohub,2013-06-04 18:08:00,
2013-06-04 14:13:00,72.0,56.8,29.92,ESE,120,0.0,1.0,59,0.00,,,0.00,meteohub,2013-06-04 18:13:00,
2013-06-04 14:18:00,72.3,55.2,29.91,ESE,103,1.0,1.0,55,0.00,,,0.00,meteohub,2013-06-04 18:18:00,
2013-06-04 14:23:00,72.9,56.7,29.91,WNW,294,0.0,1.0,57,0.00,,,0.00,meteohub,2013-06-04 18:23:00,
2013-06-04 14:28:00,73.0,58.3,29.91,WNW,299,0.0,1.0,60,0.00,,,0.00,meteohub,2013-06-04 18:28:00,
2013-06-04 14:33:00,72.7,53.4,29.91,SSW,193,0.0,1.0,51,0.00,,,0.00,meteohub,2013-06-04 18:33:00,
2013-06-04 14:38:00,72.7,53.4,29.91,NNW,335,0.0,1.0,51,0.00,,,0.00,meteohub,2013-06-04 18:38:00,
2013-06-04 14:43:00,72.9,55.2,29.91,NW,307,0.0,1.0,54,0.00,,,0.00,meteohub,2013-06-04 18:43:00,
2013-06-04 14:48:00,72.7,55.6,29.91,SSE,148,0.0,1.0,55,0.00,,,0.00,meteohub,2013-06-04 18:48:00,
2013-06-04 14:53:00,73.0,56.8,29.91,WNW,303,0.0,1.0,57,0.00,,,0.00,meteohub,2013-06-04 18:53:00,
2013-06-04 14:58:00,73.9,54.1,29.91,SE,129,0.0,1.0,50,0.00,,,0.00,meteohub,2013-06-04 18:58:00,
2013-06-04 15:03:00,74.1,53.2,29.91,NNW,344,0.0,1.0,48,0.00,,,0.00,meteohub,2013-06-04 19:03:00,
2013-06-04 15:08:00,74.1,56.8,29.91,NNW,330,0.0,1.0,55,0.00,,,0.00,meteohub,2013-06-04 19:08:00,
2013-06-04 15:13:00,74.7,53.6,29.91,North,9,0.0,1.0,48,0.00,,,0.00,meteohub,2013-06-04 19:13:00,
2013-06-04 15:18:00,74.7,54.9,29.90,WNW,300,0.0,1.0,50,0.00,,,0.00,meteohub,2013-06-04 19:18:00,
2013-06-04 15:23:00,74.8,56.1,29.91,South,171,0.0,1.0,52,0.00,,,0.00,meteohub,2013-06-04 19:23:00,
2013-06-04 15:28:00,74.8,56.5,29.91,NW,308,0.0,1.0,53,0.00,,,0.00,meteohub,2013-06-04 19:28:00,
2013-06-04 15:33:00,74.1,55.4,29.90,North,350,0.0,1.0,52,0.00,,,0.00,meteohub,2013-06-04 19:33:00,
2013-06-04 15:38:00,73.6,56.8,29.90,North,350,0.0,1.0,56,0.00,,,0.00,meteohub,2013-06-04 19:38:00,
2013-06-04 15:43:00,73.0,53.8,29.90,North,351,0.0,0.0,51,0.00,,,0.00,meteohub,2013-06-04 19:43:00,
2013-06-04 15:48:00,72.5,54.0,29.90,North,350,0.0,0.0,52,0.00,,,0.00,meteohub,2013-06-04 19:48:00,
2013-06-04 15:53:00,72.7,56.5,29.90,North,349,0.0,0.0,57,0.00,,,0.00,meteohub,2013-06-04 19:53:00,
2013-06-04 15:58:00,73.9,57.7,29.91,NE,56,0.0,0.0,57,0.00,,,0.00,meteohub,2013-06-04 19:58:00,
2013-06-04 16:03:00,74.8,55.6,29.91,NW,325,0.0,0.0,51,0.00,,,0.00,meteohub,2013-06-04 20:03:00,
2013-06-04 16:08:00,75.6,57.2,29.90,NW,325,0.0,1.0,53,0.00,,,0.00,meteohub,2013-06-04 20:08:00,
2013-06-04 16:13:00,75.7,59.0,29.91,ESE,110,1.0,1.0,56,0.00,,,0.00,meteohub,2013-06-04 20:13:00,
2013-06-04 16:18:00,74.8,59.5,29.90,SE,130,0.0,1.0,59,0.00,,,0.00,meteohub,2013-06-04 20:18:00,
2013-06-04 16:23:00,73.8,59.0,29.90,South,183,0.0,1.0,60,0.00,,,0.00,meteohub,2013-06-04 20:23:00,
2013-06-04 16:28:00,74.1,60.3,29.90,South,179,0.0,1.0,62,0.00,,,0.00,meteohub,2013-06-04 20:28:00,
2013-06-04 16:33:00,73.4,60.1,29.90,SE,133,0.0,1.0,63,0.00,,,0.00,meteohub,2013-06-04 20:33:00,
2013-06-04 16:38:00,72.1,59.7,29.90,SE,137,1.0,1.0,65,0.00,,,0.00,meteohub,2013-06-04 20:38:00,
2013-06-04 16:43:00,70.9,59.7,29.90,SE,137,0.0,1.0,68,0.00,,,0.00,meteohub,2013-06-04 20:43:00,
2013-06-04 16:48:00,70.3,60.1,29.90,SE,137,0.0,1.0,70,0.00,,,0.00,meteohub,2013-06-04 20:48:00,
2013-06-04 16:53:00,69.6,59.4,29.90,SE,139,0.0,1.0,70,0.00,,,0.00,meteohub,2013-06-04 20:53:00,
2013-06-04 16:58:00,69.1,60.1,29.90,SE,139,0.0,1.0,73,0.00,,,0.00,meteohub,2013-06-04 20:58:00,
2013-06-04 17:04:00,68.5,60.3,29.90,SE,139,0.0,1.0,75,0.00,,,0.00,meteohub,2013-06-04 21:04:00,
2013-06-04 17:09:00,68.2,60.3,29.90,East,89,0.0,1.0,76,0.00,,,0.00,meteohub,2013-06-04 21:09:00,
2013-06-04 17:14:00,67.8,59.9,29.90,SSE,149,0.0,1.0,76,0.00,,,0.00,meteohub,2013-06-04 21:14:00,
2013-06-04 17:19:00,67.8,60.3,29.90,SSE,148,0.0,1.0,77,0.00,,,0.00,meteohub,2013-06-04 21:19:00,
2013-06-04 17:24:00,67.8,60.6,29.90,SSE,148,0.0,1.0,78,0.00,,,0.00,meteohub,2013-06-04 21:24:00,
2013-06-04 17:29:00,67.8,60.6,29.89,ESE,120,0.0,1.0,78,0.00,,,0.00,meteohub,2013-06-04 21:29:00,
2013-06-04 17:34:00,67.6,61.0,29.90,ESE,120,0.0,1.0,79,0.00,,,0.00,meteohub,2013-06-04 21:34:00,
2013-06-04 17:39:00,67.6,61.0,29.90,ESE,120,0.0,1.0,79,0.00,,,0.00,meteohub,2013-06-04 21:39:00,
2013-06-04 17:44:00,67.8,61.0,29.90,East,82,0.0,1.0,79,0.00,,,0.00,meteohub,2013-06-04 21:44:00,
2013-06-04 17:49:00,67.8,61.0,29.90,South,185,0.0,1.0,79,0.00,,,0.00,meteohub,2013-06-04 21:49:00,
2013-06-04 17:54:00,67.6,61.0,29.90,South,184,0.0,1.0,79,0.00,,,0.00,meteohub,2013-06-04 21:54:00,
2013-06-04 17:59:00,67.6,61.0,29.90,South,184,0.0,1.0,79,0.00,,,0.00,meteohub,2013-06-04 21:59:00,
2013-06-04 18:04:00,67.5,61.2,29.90,South,184,0.0,0.0,80,0.00,,,0.00,meteohub,2013-06-04 22:04:00,
2013-06-04 18:09:00,67.3,61.0,29.90,South,184,0.0,0.0,80,0.00,,,0.00,meteohub,2013-06-04 22:09:00,
2013-06-04 18:14:00,67.3,61.0,29.90,SSE,147,0.0,0.0,80,0.00,,,0.00,meteohub,2013-06-04 22:14:00,
2013-06-04 18:19:00,67.3,61.2,29.90,SSE,147,0.0,0.0,81,0.00,,,0.00,meteohub,2013-06-04 22:19:00,
2013-06-04 18:24:00,67.3,61.0,29.90,SSE,147,0.0,0.0,80,0.00,,,0.00,meteohub,2013-06-04 22:24:00,
2013-06-04 18:29:00,67.1,61.2,29.90,SSE,148,0.0,0.0,81,0.00,,,0.00,meteohub,2013-06-04 22:29:00,
2013-06-04 18:34:00,67.1,61.2,29.90,SSE,148,0.0,0.0,81,0.00,,,0.00,meteohub,2013-06-04 22:34:00,
2013-06-04 18:39:00,67.1,60.8,29.90,SSE,158,0.0,0.0,80,0.00,,,0.00,meteohub,2013-06-04 22:39:00,
2013-06-04 18:44:00,66.9,60.6,29.90,ESE,120,0.0,1.0,80,0.00,,,0.00,meteohub,2013-06-04 22:44:00,
2013-06-04 18:49:00,66.7,60.8,29.90,SSE,166,0.0,1.0,81,0.00,,,0.00,meteohub,2013-06-04 22:49:00,
2013-06-04 18:54:00,66.6,60.6,29.90,South,174,0.0,1.0,81,0.00,,,0.00,meteohub,2013-06-04 22:54:00,
2013-06-04 18:59:00,66.4,60.4,29.89,South,185,0.0,1.0,81,0.00,,,0.00,meteohub,2013-06-04 22:59:00,
2013-06-04 19:04:00,66.4,60.8,29.89,SSE,160,0.0,1.0,82,0.00,,,0.00,meteohub,2013-06-04 23:04:00,
2013-06-04 19:09:00,66.2,60.6,29.90,SE,144,0.0,1.0,82,0.00,,,0.00,meteohub,2013-06-04 23:09:00,
2013-06-04 19:14:00,66.0,60.4,29.90,SSE,165,0.0,1.0,82,0.00,,,0.00,meteohub,2013-06-04 23:14:00,
2013-06-04 19:19:00,65.8,60.6,29.90,ESE,120,0.0,0.0,83,0.00,,,0.00,meteohub,2013-06-04 23:19:00,
2013-06-04 19:24:00,65.8,60.6,29.90,ESE,120,0.0,2.0,83,0.00,,,0.00,meteohub,2013-06-04 23:24:00,
2013-06-04 19:29:00,65.7,60.4,29.90,SSE,156,0.0,2.0,83,0.00,,,0.00,meteohub,2013-06-04 23:29:00,
2013-06-04 19:34:00,65.7,60.6,29.90,South,177,0.0,2.0,84,0.00,,,0.00,meteohub,2013-06-04 23:34:00,
2013-06-04 19:39:00,65.7,60.6,29.90,SSE,166,0.0,1.0,84,0.00,,,0.00,meteohub,2013-06-04 23:39:00,
2013-06-04 19:44:00,65.7,61.0,29.91,SSE,153,0.0,1.0,85,0.00,,,0.00,meteohub,2013-06-04 23:44:00,
2013-06-04 19:49:00,65.7,61.0,29.91,SSE,149,0.0,1.0,85,0.00,,,0.00,meteohub,2013-06-04 23:49:00,
2013-06-04 19:54:00,65.8,61.2,29.91,SSE,149,0.0,1.0,85,0.00,,,0.00,meteohub,2013-06-04 23:54:00,
2013-06-04 19:59:00,66.0,61.3,29.91,South,189,0.0,1.0,85,0.00,,,0.00,meteohub,2013-06-04 23:59:00,
2013-06-04 20:04:00,66.0,61.3,29.91,South,189,0.0,1.0,85,0.00,,,0.00,meteohub,2013-06-05 00:04:00,
2013-06-04 20:09:00,65.8,61.5,29.91,South,180,0.0,1.0,86,0.00,,,0.00,meteohub,2013-06-05 00:09:00,
2013-06-04 20:14:00,65.5,61.5,29.91,South,186,0.0,1.0,87,0.00,,,0.00,meteohub,2013-06-05 00:14:00,
2013-06-04 20:20:00,65.1,61.2,29.91,SSE,166,0.0,1.0,87,0.00,,,0.00,meteohub,2013-06-05 00:20:00,
2013-06-04 20:25:00,64.8,61.2,29.92,SE,130,0.0,1.0,88,0.00,,,0.00,meteohub,2013-06-05 00:25:00,
2013-06-04 20:30:00,64.6,61.3,29.92,SE,130,0.0,1.0,89,0.00,,,0.00,meteohub,2013-06-05 00:30:00,
2013-06-04 20:35:00,64.2,61.0,29.92,SE,138,0.0,1.0,89,0.00,,,0.00,meteohub,2013-06-05 00:35:00,
2013-06-04 20:40:00,64.0,61.0,29.92,SE,138,0.0,0.0,90,0.00,,,0.00,meteohub,2013-06-05 00:40:00,
2013-06-04 20:45:00,63.9,60.8,29.92,SSE,156,0.0,1.0,90,0.00,,,0.00,meteohub,2013-06-05 00:45:00,
2013-06-04 20:50:00,63.9,60.8,29.92,SSE,156,0.0,1.0,90,0.00,,,0.00,meteohub,2013-06-05 00:50:00,
2013-06-04 20:55:00,63.7,60.6,29.92,SSE,162,0.0,1.0,90,0.00,,,0.00,meteohub,2013-06-05 00:55:00,
2013-06-04 21:00:00,63.3,60.3,29.92,SSE,162,0.0,1.0,90,0.00,,,0.00,meteohub,2013-06-05 01:00:00,
2013-06-04 21:05:00,63.1,60.1,29.92,SSE,162,0.0,1.0,90,0.00,,,0.00,meteohub,2013-06-05 01:05:00,
2013-06-04 21:10:00,63.0,59.9,29.92,SSE,161,0.0,1.0,90,0.00,,,0.00,meteohub,2013-06-05 01:10:00,
2013-06-04 21:15:00,62.8,59.7,29.92,SSE,161,0.0,1.0,90,0.00,,,0.00,meteohub,2013-06-05 01:15:00,
2013-06-04 21:20:00,62.6,59.5,29.93,SSE,162,0.0,1.0,90,0.00,,,0.00,meteohub,2013-06-05 01:20:00,
2013-06-04 21:25:00,62.4,59.7,29.93,SSE,161,0.0,1.0,91,0.00,,,0.00,meteohub,2013-06-05 01:25:00,
2013-06-04 21:30:00,62.4,59.7,29.93,SSE,148,0.0,0.0,91,0.00,,,0.00,meteohub,2013-06-05 01:30:00,
2013-06-04 21:35:00,62.6,59.9,29.93,SSE,162,0.0,1.0,91,0.00,,,0.00,meteohub,2013-06-05 01:35:00,
2013-06-04 21:40:00,62.6,59.9,29.93,SSE,153,0.0,1.0,91,0.00,,,0.00,meteohub,2013-06-05 01:40:00,
2013-06-04 21:45:00,62.4,59.7,29.94,SSE,153,0.0,1.0,91,0.00,,,0.00,meteohub,2013-06-05 01:45:00,
2013-06-04 21:50:00,62.4,59.7,29.94,SSE,152,0.0,1.0,91,0.00,,,0.00,meteohub,2013-06-05 01:50:00,
2013-06-04 21:55:00,62.2,59.5,29.94,SSE,152,0.0,1.0,91,0.00,,,0.00,meteohub,2013-06-05 01:55:00,
2013-06-04 22:00:00,62.2,59.5,29.95,South,171,0.0,1.0,91,0.00,,,0.00,meteohub,2013-06-05 02:00:00,
2013-06-04 22:05:00,62.2,59.5,29.95,SSE,162,0.0,1.0,91,0.00,,,0.00,meteohub,2013-06-05 02:05:00,
2013-06-04 22:10:00,62.2,59.5,29.95,SSE,162,0.0,1.0,91,0.00,,,0.00,meteohub,2013-06-05 02:10:00,
2013-06-04 22:15:00,62.2,59.2,29.95,SSE,161,0.0,1.0,90,0.00,,,0.00,meteohub,2013-06-05 02:15:00,
2013-06-04 22:20:00,62.2,59.2,29.95,SSE,159,0.0,1.0,90,0.00,,,0.00,meteohub,2013-06-05 02:20:00,
2013-06-04 22:25:00,62.2,59.2,29.95,South,173,0.0,1.0,90,0.00,,,0.00,meteohub,2013-06-05 02:25:00,
2013-06-04 22:30:00,62.1,59.2,29.95,South,173,0.0,1.0,90,0.00,,,0.00,meteohub,2013-06-05 02:30:00,
2013-06-04 22:35:00,61.9,59.0,29.96,South,173,0.0,1.0,90,0.00,,,0.00,meteohub,2013-06-05 02:35:00,
2013-06-04 22:40:00,61.5,58.6,29.95,South,173,0.0,0.0,90,0.00,,,0.00,meteohub,2013-06-05 02:40:00,
2013-06-04 22:45:00,61.3,58.6,29.96,South,173,0.0,0.0,91,0.00,,,0.00,meteohub,2013-06-05 02:45:00,
2013-06-04 22:50:00,61.2,58.5,29.96,South,173,0.0,0.0,91,0.00,,,0.00,meteohub,2013-06-05 02:50:00,
2013-06-04 22:55:00,61.0,58.6,29.96,South,173,0.0,0.0,92,0.00,,,0.00,meteohub,2013-06-05 02:55:00,
2013-06-04 23:00:00,60.8,58.5,29.96,South,177,0.0,0.0,92,0.00,,,0.00,meteohub,2013-06-05 03:00:00,
2013-06-04 23:05:00,60.8,58.5,29.96,South,179,0.0,2.0,92,0.00,,,0.00,meteohub,2013-06-05 03:05:00,
2013-06-04 23:10:00,60.8,58.5,29.96,South,178,0.0,2.0,92,0.00,,,0.00,meteohub,2013-06-05 03:10:00,
2013-06-04 23:15:00,60.8,58.5,29.96,South,178,0.0,2.0,92,0.00,,,0.00,meteohub,2013-06-05 03:15:00,
2013-06-04 23:20:00,60.6,58.3,29.96,South,178,0.0,0.0,92,0.00,,,0.00,meteohub,2013-06-05 03:20:00,
2013-06-04 23:25:00,60.6,58.3,29.96,South,178,0.0,0.0,92,0.00,,,0.00,meteohub,2013-06-05 03:25:00,
2013-06-04 23:30:00,60.6,58.3,29.96,South,177,0.0,0.0,92,0.00,,,0.00,meteohub,2013-06-05 03:30:00,
2013-06-04 23:35:00,60.4,58.1,29.96,South,177,0.0,0.0,92,0.00,,,0.00,meteohub,2013-06-05 03:35:00,
2013-06-04 23:40:00,60.4,58.5,29.96,South,177,0.0,0.0,93,0.00,,,0.00,meteohub,2013-06-05 03:40:00,
2013-06-04 23:46:00,60.3,57.9,29.96,South,177,0.0,0.0,92,0.00,,,0.00,meteohub,2013-06-05 03:46:00,
2013-06-04 23:51:00,60.3,57.9,29.96,South,177,0.0,0.0,92,0.00,,,0.00,meteohub,2013-06-05 03:51:00,
2013-06-04 23:56:00,60.1,58.1,29.95,South,177,0.0,0.0,93,0.00,,,0.00,meteohub,2013-06-05 03:56:00,